TimePST,TemperatureF,Dew PointF,Humidity,Sea Level PressureIn,VisibilityMPH,Wind Direction,Wind SpeedMPH,Gust SpeedMPH,PrecipitationIn,Events,Conditions,WindDirDegrees,DateUTC
12:53 AM,53.1,25.0,34,30.24,10.0,Calm,Calm,-,N/A,,Clear,0,2012-03-09 08:53:00
1:53 AM,52.0,28.0,40,30.23,10.0,Calm,Calm,-,N/A,,Clear,0,2012-03-09 09:53:00
2:53 AM,50.0,28.9,44,30.21,10.0,Calm,Calm,-,N/A,,Clear,0,2012-03-09 10:53:00
3:53 AM,50.0,28.0,43,30.21,10.0,NW,3.5,-,N/A,,Clear,310,2012-03-09 11:53:00
4:53 AM,48.0,28.9,48,30.20,10.0,WNW,3.5,-,N/A,,Clear,300,2012-03-09 12:53:00
5:53 AM,48.0,28.0,46,30.20,10.0,Calm,Calm,-,N/A,,Clear,0,2012-03-09 13:53:00
6:53 AM,61.0,19.0,20,30.21,10.0,East,6.9,-,N/A,,Clear,80,2012-03-09 14:53:00
7:53 AM,70.0,18.0,14,30.22,10.0,Variable,4.6,-,N/A,,Clear,0,2012-03-09 15:53:00
8:53 AM,75.9,19.9,12,30.21,10.0,Calm,Calm,-,N/A,,Clear,0,2012-03-09 16:53:00
9:53 AM,80.1,23.0,12,30.19,10.0,Calm,Calm,-,N/A,,Clear,0,2012-03-09 17:53:00
10:53 AM,84.0,23.0,11,30.17,10.0,NW,5.8,-,N/A,,Clear,310,2012-03-09 18:53:00
11:53 AM,87.1,18.0,8,30.14,10.0,ESE,9.2,-,N/A,,Clear,110,2012-03-09 19:53:00
12:53 PM,87.1,15.1,7,30.10,10.0,Variable,4.6,-,N/A,,Clear,0,2012-03-09 20:53:00
1:53 PM,88.0,17.1,7,30.07,10.0,Variable,4.6,-,N/A,,Clear,0,2012-03-09 21:53:00
2:53 PM,89.1,18.0,7,30.04,10.0,NW,4.6,-,N/A,,Clear,320,2012-03-09 22:53:00
3:53 PM,86.0,19.0,8,30.02,10.0,West,10.4,19.6,N/A,,Clear,280,2012-03-09 23:53:00
4:53 PM,81.0,19.0,10,30.02,10.0,WNW,12.7,19.6,N/A,,Clear,290,2012-03-10 00:53:00
5:53 PM,75.0,19.9,13,30.03,10.0,Variable,5.8,-,N/A,,Clear,0,2012-03-10 01:53:00
6:53 PM,72.0,21.9,15,30.03,10.0,Calm,Calm,-,N/A,,Clear,0,2012-03-10 02:53:00
7:53 PM,68.0,26.1,21,30.03,10.0,Calm,Calm,-,N/A,,Clear,0,2012-03-10 03:53:00
8:53 PM,64.9,30.9,28,30.03,10.0,Calm,Calm,-,N/A,,Clear,0,2012-03-10 04:53:00
9:53 PM,63.0,30.0,29,30.03,10.0,Calm,Calm,-,N/A,,Clear,0,2012-03-10 05:53:00
10:53 PM,60.1,32.0,35,30.02,10.0,East,3.5,-,N/A,,Clear,80,2012-03-10 06:53:00
11:53 PM,57.9,32.0,37,30.01,10.0,Calm,Calm,-,N/A,,Clear,0,2012-03-10 07:53:00